Weather History for KANB - September, 2013

Change the Weather History Date:

Sunday, September 8, 2013

  Actual Average Record
Temperature  
Mean Temperature 78 °F 76 °F  
Max Temperature 90 °F 86 °F 98 °F (1955)
Min Temperature 65 °F 66 °F 52 °F (1951)
Degree Days  
Heating Degree Days 0    
Month to date heating degree days 0  
Since 1 July heating degree days 0  
Cooling Degree Days 13    
Growing Degree Days 28 (Base 50)    
Moisture  
Dew Point 67 °F    
Average Humidity 72    
Maximum Humidity 97    
Minimum Humidity 46    
Precipitation  
Precipitation 0.00 in 0.10 in 0.43 in (1957)
Month to date precipitation 1.75 0.80  
Year to date precipitation 59.53 35.72  
Sea Level Pressure  
Sea Level Pressure 29.99 in    
Wind  
Wind Speed 1 mph (WSW)    
Max Wind Speed 10 mph    
Max Gust Speed 15 mph    
Visibility 8 miles    
Events      
T = Trace of Precipitation, MM = Missing Value Source: NWS Daily Summary

Daily Weather History Graph

Daily Weather History Graph

Search for Another Location

Airport or City:

Trip Planner

Search our weather history database for the weather conditions in past years. The results will help you decide how hot, cold, wet, or windy it might be!

Date:

Astronomy

Sep. 08, 2013 Rise Set
Actual Time 6:22 AM CDT 6:59 PM CDT
Civil Twilight 5:57 AM CDT 7:24 PM CDT
Nautical Twilight 5:27 AM CDT 7:53 PM CDT
Astronomical Twilight 4:57 AM CDT 8:23 PM CDT
Moon 9:26 AM CDT (9/8) 8:47 PM CDT (9/8)
Length of Visible Light 13h 27m
Length of Day
12h 36m
Waxing Crescent, 11% of the Moon is Illuminated
Sep 8
Waxing Crescent
Sep 12
First Quarter
Sep 19
Full
Sep 26
Last Quarter
Oct 4
New

Hourly Weather History & Observations

Time (CDT) Temp. Heat Index Dew Point Humidity Pressure Visibility Wind Dir Wind Speed Gust Speed Precip Events Conditions
12:53 AM 70.0 °F - 68.0 °F 93% 30.02 in 6.0 mi Calm Calm - N/A   Clear
1:53 AM 69.1 °F - 66.9 °F 93% 30.00 in 6.0 mi ENE 3.5 mph - N/A   Clear
2:53 AM 68.0 °F - 66.0 °F 93% 29.99 in 6.0 mi Calm Calm - N/A   Clear
3:53 AM 66.9 °F - 64.9 °F 93% 29.99 in 5.0 mi Calm Calm - N/A   Clear
4:53 AM 66.9 °F - 64.9 °F 93% 29.99 in 6.0 mi Calm Calm - N/A   Clear
5:53 AM 66.0 °F - 64.0 °F 93% 29.99 in 6.0 mi Calm Calm - N/A   Clear
6:53 AM 66.0 °F - 64.0 °F 93% 30.02 in 5.0 mi Calm Calm - N/A   Clear
7:53 AM 68.0 °F - 64.9 °F 90% 30.02 in 7.0 mi Calm Calm - 0.01 in   Clear
8:53 AM 73.9 °F - 68.0 °F 82% 30.03 in 9.0 mi Calm Calm - N/A   Clear
9:53 AM 80.1 °F 82.7 °F 68.0 °F 67% 30.03 in 10.0 mi Calm Calm - N/A   Clear
10:53 AM 82.9 °F 85.4 °F 66.9 °F 58% 30.02 in 10.0 mi SW 3.5 mph - N/A   Clear
11:53 AM 84.0 °F 86.5 °F 66.9 °F 56% 30.02 in 10.0 mi Calm Calm - N/A   Mostly Cloudy
12:53 PM 86.0 °F 89.4 °F 68.0 °F 55% 30.01 in 10.0 mi SW 6.9 mph - N/A   Mostly Cloudy
1:53 PM 88.0 °F 90.3 °F 66.0 °F 48% 29.98 in 10.0 mi Variable 4.6 mph - N/A   Mostly Cloudy
2:53 PM 90.0 °F 92.8 °F 66.9 °F 46% 29.96 in 10.0 mi Variable 4.6 mph - N/A   Overcast
3:53 PM 88.0 °F 89.6 °F 64.9 °F 46% 29.95 in 10.0 mi Calm Calm - N/A   Clear
4:53 PM 88.0 °F 89.6 °F 64.9 °F 46% 29.95 in 10.0 mi WNW 4.6 mph - N/A   Partly Cloudy
5:53 PM 86.0 °F 88.8 °F 66.9 °F 53% 29.95 in 10.0 mi Calm Calm - N/A   Clear
6:53 PM 81.0 °F 84.9 °F 71.1 °F 72% 29.95 in 8.0 mi Calm Calm - N/A   Clear
7:53 PM 75.9 °F - 72.0 °F 87% 29.96 in 8.0 mi Calm Calm - N/A   Clear
8:53 PM 75.0 °F - 72.0 °F 90% 29.97 in 6.0 mi Calm Calm - N/A   Clear
9:53 PM 73.9 °F - 71.1 °F 91% 29.98 in 6.0 mi Calm Calm - N/A   Clear
10:53 PM 73.0 °F - 71.1 °F 93% 29.99 in 5.0 mi Calm Calm - N/A   Clear
11:53 PM 72.0 °F - 70.0 °F 93% 30.00 in 5.0 mi Calm Calm - N/A   Clear